Weather History for KARG - May, 2013

Change the Weather History Date:

Friday, May 31, 2013

  Actual Average Record
Temperature  
Mean Temperature 75 °F -  
Max Temperature 82 °F 79 °F 95 °F (1998)
Min Temperature 68 °F 61 °F 60 °F (1997)
Cooling Degree Days 10    
Growing Degree Days 25 (Base 50)    
Moisture  
Dew Point 72 °F    
Average Humidity 86    
Maximum Humidity 94    
Minimum Humidity 74    
Precipitation  
Precipitation 0.24 in - - ()
Sea Level Pressure  
Sea Level Pressure 29.88 in    
Wind  
Wind Speed 16 mph (SSE)    
Max Wind Speed 24 mph    
Max Gust Speed 29 mph    
Visibility 10 miles    
Events Thunderstorm    
Averages and records for this station are not official NWS values.
T = Trace of Precipitation, MM = Missing Value Source: NWS Daily Summary

Daily Weather History Graph

Daily Weather History Graph

Search for Another Location

Airport or City:

Trip Planner

Search our weather history database for the weather conditions in past years. The results will help you decide how hot, cold, wet, or windy it might be!

Date:

Astronomy

May. 31, 2013 Rise Set
Actual Time 5:48 AM CDT 8:14 PM CDT
Civil Twilight 5:18 AM CDT 8:44 PM CDT
Nautical Twilight 4:41 AM CDT 9:21 PM CDT
Astronomical Twilight 4:01 AM CDT 10:01 PM CDT
Moon 12:58 AM CDT (5/31) 12:54 PM CDT (5/31)
Length of Visible Light 15h 26m
Length of Day
14h 26m
Waning Gibbous, 51% of the Moon is Illuminated
May 31
Waning Gibbous
May 31
Last Quarter
Jun 8
New
Jun 16
First Quarter
Jun 23
Full

Hourly Weather History & Observations

Time (CDT) Temp. Heat Index Dew Point Humidity Pressure Visibility Wind Dir Wind Speed Gust Speed Precip Events Conditions
12:15 AM 73.4 °F - 71.6 °F 94% 29.86 in 10.0 mi South 17.3 mph - N/A   Scattered Clouds
12:35 AM 73.4 °F - 69.8 °F 88% 29.87 in 10.0 mi SSW 18.4 mph 24.2 mph N/A   Partly Cloudy
12:55 AM 73.4 °F - 69.8 °F 88% 29.87 in 10.0 mi SSW 18.4 mph 24.2 mph N/A   Clear
1:15 AM 73.4 °F - 69.8 °F 88% 29.87 in 10.0 mi South 24.2 mph 27.6 mph N/A   Clear
1:35 AM 73.4 °F - 69.8 °F 88% 29.88 in 10.0 mi South 21.9 mph 26.5 mph N/A   Clear
1:55 AM 73.4 °F - 71.6 °F 94% 29.91 in 10.0 mi South 17.3 mph 23.0 mph N/A   Clear
2:15 AM 73.4 °F - 71.6 °F 94% 29.92 in 10.0 mi SSW 11.5 mph - N/A   Mostly Cloudy
3:15 AM 69.8 °F - 68.0 °F 94% 29.95 in 10.0 mi WSW 13.8 mph 20.7 mph N/A   Mostly Cloudy
3:35 AM 69.8 °F - 66.2 °F 88% 29.96 in 10.0 mi SW 11.5 mph - N/A   Overcast
3:55 AM 68.0 °F - 66.2 °F 94% 29.95 in 10.0 mi South 9.2 mph - N/A Thunderstorm Overcast
4:15 AM 68.0 °F - 66.2 °F 94% 29.96 in 10.0 mi SSW 3.5 mph - N/A Thunderstorm Overcast
4:36 AM 68.0 °F - 66.2 °F 94% 29.95 in 10.0 mi Calm Calm - N/A Thunderstorm Overcast
4:55 AM - - - N/A% 29.88 in 7.0 mi SE 19.6 mph - 0.17 in Thunderstorm Thunderstorm
5:15 AM - - - N/A% 29.85 in 8.0 mi ESE 24.2 mph 28.8 mph 0.04 in   Mostly Cloudy
5:35 AM - - - N/A% 29.86 in 10.0 mi SE 20.7 mph 27.6 mph 0.05 in   Overcast
5:55 AM - - - N/A% 29.86 in 10.0 mi ESE 17.3 mph - 0.06 in   Scattered Clouds
6:15 AM - - - N/A% 29.89 in 10.0 mi SSE 12.7 mph - N/A   Scattered Clouds
6:35 AM - - - N/A% 29.90 in 10.0 mi SSE 9.2 mph - 0.01 in   Scattered Clouds
6:55 AM - - - N/A% 29.90 in 10.0 mi SE 9.2 mph - 0.01 in   Partly Cloudy
7:15 AM - - - N/A% 29.90 in 10.0 mi SE 11.5 mph - N/A   Mostly Cloudy
7:55 AM - - - N/A% 29.91 in 10.0 mi SSE 12.7 mph - N/A   Mostly Cloudy
8:15 AM - - - N/A% 29.91 in 10.0 mi SE 15.0 mph - N/A   Mostly Cloudy
8:35 AM - - - N/A% 29.91 in 10.0 mi SE 15.0 mph - N/A   Mostly Cloudy
8:55 AM 69.8 °F - 66.2 °F 88% 29.92 in 10.0 mi SSE 18.4 mph - N/A   Mostly Cloudy
9:15 AM 69.8 °F - 66.2 °F 88% 29.92 in 10.0 mi SSE 15.0 mph - N/A   Mostly Cloudy
9:55 AM 69.8 °F - 68.0 °F 94% 29.92 in 10.0 mi SSE 16.1 mph 21.9 mph N/A   Overcast
10:15 AM 71.6 °F - 68.0 °F 88% 29.92 in 10.0 mi SSE 18.4 mph - N/A   Mostly Cloudy
10:35 AM 69.8 °F - 68.0 °F 94% 29.91 in 10.0 mi SSE 17.3 mph - N/A   Overcast
10:55 AM 69.8 °F - 68.0 °F 94% 29.91 in 10.0 mi SSE 18.4 mph - N/A   Overcast
11:36 AM 73.4 °F - 69.8 °F 88% 29.91 in 10.0 mi SSE 17.3 mph - N/A   Overcast
11:55 AM 73.4 °F - 71.6 °F 94% 29.90 in 10.0 mi SSE 17.3 mph 21.9 mph N/A   Mostly Cloudy
12:15 PM 73.4 °F - 71.6 °F 94% 29.90 in 10.0 mi SSE 13.8 mph - N/A   Mostly Cloudy
12:35 PM 75.2 °F - 73.4 °F 94% 29.90 in 10.0 mi SSE 15.0 mph - N/A   Mostly Cloudy
12:55 PM 78.8 °F - 75.2 °F 89% 29.89 in 10.0 mi SSE 16.1 mph - N/A   Mostly Cloudy
1:15 PM 78.8 °F - 73.4 °F 83% 29.89 in 10.0 mi South 17.3 mph - N/A   Mostly Cloudy
1:35 PM 80.6 °F 85.4 °F 73.4 °F 79% 29.88 in 10.0 mi South 13.8 mph 23.0 mph N/A   Overcast
1:56 PM 80.6 °F 85.4 °F 73.4 °F 79% 29.88 in 10.0 mi South 15.0 mph 23.0 mph N/A   Overcast
2:15 PM 80.6 °F 85.4 °F 73.4 °F 79% 29.88 in 10.0 mi South 17.3 mph 24.2 mph N/A   Mostly Cloudy
2:35 PM 82.4 °F 88.2 °F 73.4 °F 74% 29.87 in 10.0 mi South 19.6 mph - N/A   Overcast
2:56 PM 82.4 °F 88.2 °F 73.4 °F 74% 29.87 in 10.0 mi South 17.3 mph 23.0 mph N/A   Mostly Cloudy
3:15 PM 82.4 °F 89.5 °F 75.2 °F 79% 29.87 in 10.0 mi South 18.4 mph 21.9 mph N/A   Mostly Cloudy
3:35 PM 82.4 °F 89.5 °F 75.2 °F 79% 29.87 in 10.0 mi South 16.1 mph - N/A   Mostly Cloudy
3:55 PM 82.4 °F 89.5 °F 75.2 °F 79% 29.86 in 10.0 mi South 19.6 mph - N/A   Mostly Cloudy
4:15 PM 82.4 °F 89.5 °F 75.2 °F 79% 29.86 in 10.0 mi South 19.6 mph 26.5 mph N/A   Mostly Cloudy
4:35 PM 82.4 °F 89.5 °F 75.2 °F 79% 29.85 in 10.0 mi South 18.4 mph 25.3 mph N/A   Mostly Cloudy
4:55 PM 82.4 °F 89.5 °F 75.2 °F 79% 29.85 in 10.0 mi South 16.1 mph 24.2 mph N/A   Scattered Clouds
5:16 PM 82.4 °F 89.5 °F 75.2 °F 79% 29.85 in 10.0 mi South 20.7 mph 25.3 mph N/A   Partly Cloudy
5:35 PM 82.4 °F 89.5 °F 75.2 °F 79% 29.84 in 10.0 mi South 17.3 mph - N/A   Partly Cloudy
5:55 PM 82.4 °F 89.5 °F 75.2 °F 79% 29.83 in 10.0 mi South 18.4 mph 21.9 mph N/A   Partly Cloudy
6:15 PM 82.4 °F 89.5 °F 75.2 °F 79% 29.82 in 10.0 mi South 21.9 mph 25.3 mph N/A   Partly Cloudy
6:35 PM 82.4 °F 89.5 °F 75.2 °F 79% 29.82 in 10.0 mi South 17.3 mph 21.9 mph N/A   Partly Cloudy
6:55 PM 82.4 °F 89.5 °F 75.2 °F 79% 29.82 in 10.0 mi South 17.3 mph 21.9 mph N/A   Partly Cloudy
7:15 PM 80.6 °F 86.2 °F 75.2 °F 84% 29.81 in 10.0 mi South 15.0 mph - N/A   Clear
7:35 PM 80.6 °F 86.2 °F 75.2 °F 84% 29.79 in 10.0 mi SSE 13.8 mph - N/A   Clear
7:55 PM 80.6 °F 85.4 °F 73.4 °F 79% 29.78 in 10.0 mi South 16.1 mph - N/A   Clear
8:15 PM 78.8 °F - 73.4 °F 83% 29.78 in 10.0 mi South 12.7 mph - N/A   Clear
8:56 PM 78.8 °F - 73.4 °F 83% 29.83 in 10.0 mi South 9.2 mph - N/A   Partly Cloudy
9:15 PM 78.8 °F - 73.4 °F 83% 29.85 in 10.0 mi South 9.2 mph - N/A   Clear
9:35 PM 78.8 °F - 73.4 °F 83% 29.84 in 10.0 mi South 10.4 mph - N/A   Clear
9:55 PM 78.8 °F - 73.4 °F 83% 29.85 in 10.0 mi SSE 10.4 mph - N/A   Clear
10:15 PM 77.0 °F - 73.4 °F 89% 29.85 in 10.0 mi SSE 11.5 mph - N/A   Clear
10:35 PM 78.8 °F - 75.2 °F 89% 29.85 in 10.0 mi South 13.8 mph - N/A   Scattered Clouds
10:56 PM 77.0 °F - 75.2 °F 94% 29.85 in 10.0 mi South 13.8 mph - N/A   Partly Cloudy
11:15 PM 77.0 °F - 73.4 °F 89% 29.85 in 10.0 mi SSE 15.0 mph - N/A   Partly Cloudy
11:35 PM 77.0 °F - 73.4 °F 89% 29.85 in 10.0 mi South 15.0 mph - N/A   Clear
11:55 PM 77.0 °F - 73.4 °F 89% 29.85 in 10.0 mi SSE 18.4 mph 24.2 mph N/A   Clear